Content
SEND FEEDBACK

Daily
Averages
Monthly
Summary
United States of America

ANN ARBOR, MICHIGAN


Home > North America > United States > Michigan
Elevation: 231 meters     Latitude: 42 17N     Longitude: 083 43W

WEATHER
 
SELECT A DAY
Number of Records: 203,747;   Date Range: 1/1/95 - 8/17/14
 
SHARE

PRINT THIS DATA

[ ← Previous Day ]
WEATHER ALMANAC - 22 NOVEMBER, 2013
[ Next Day → ]
[ °F ]   °C
Weather ElementAverageHighLow
Temperature5.1 °C8 °C (6:09 am)-3.3 °C (11:53 pm)
Dewpoint3.1 °C7 °C (1:45 am)-5.6 °C (10:53 pm)
Humidity87.5 %100 % (12:53 am)67 % (5:53 pm)
Barometer1023 hPa1028.8 hPa (11:53 pm)1020.3 hPa (2:38 am)
Wind Speed11.6 km/h31.5 km/h (1:36 pm)
Wind Gust44.4 km/h (1:36 pm)
Weather ElementAverage
Visibility9.5 km
Wind DirectionWSW (240 °)

Weather ElementTotal
Precipitation4.06 mm
Heating Degree Days16 (Base 18.3)
Averaged from 50 records on 22 November, 2013
WEATHER CONDITIONS BREAKOUT
WIND DIRECTION BREAKOUT
WEATHER BY HOUR - 22 NOVEMBER, 2013
[ °F ]   °C
Local TimeTemperatureDewpointHumidityBarometerVisibilityWind DirectionWind SpeedGust SpeedPrecipitationEventsConditions
12:35 AM7 °C6 °C93 %1021.3 hPa2.4 kmCalm1.02 mmRainLight Rain
12:49 AM7 °C6 °C93 %1021 hPa1.9 kmCalm1.27 mmRainLight Rain
12:53 AM6.7 °C6.7 °C100 %1021.7 hPa1.9 kmCalm1.27 mmRainLight Rain
1:02 AM7 °C6 °C93 %1021 hPa3.2 kmSW (220°)5.6 km/h0 mmOvercast
1:08 AM7 °C6 °C93 %1021 hPa4.8 kmSW (220°)5.6 km/h0 mmOvercast
1:26 AM7 °C6 °C93 %1021 hPa4 kmCalm0 mmOvercast
1:45 AM7 °C7 °C100 %1021 hPa3.2 kmCalm0.25 mmOvercast
1:53 AM6.7 °C6.1 °C96 %1021.3 hPa4 kmCalm0.25 mmOvercast
2:38 AM7 °C6 °C93 %1020.3 hPa3.2 kmCalm0 mmOvercast
2:53 AM6.7 °C6.1 °C96 %1021 hPa4 kmCalm0 mmOvercast
3:53 AM6.7 °C6.1 °C96 %1020.7 hPa4.8 kmCalmOvercast
4:03 AM7 °C6 °C93 %1020.3 hPa4.8 kmCalmOvercast
4:10 AM7 °C6 °C93 %1020.3 hPa4 kmWSW (250°)7.4 km/hOvercast
4:50 AM7 °C7 °C100 %1020.3 hPa4.8 kmCalmOvercast
4:53 AM7.2 °C6.7 °C97 %1020.7 hPa6.4 kmWNW (290°)5.6 km/hOvercast
5:53 AM7.8 °C6.7 °C93 %1021 hPa11.3 kmWNW (300°)11.1 km/hOvercast
6:09 AM8 °C7 °C93 %1021 hPa12.9 kmWest (280°)11.1 km/hOvercast
6:53 AM7.2 °C6.7 °C97 %1020.7 hPa9.7 kmNW (320°)5.6 km/hOvercast
7:18 AM7 °C7 °C100 %1020.7 hPa11.3 kmWNW (290°)7.4 km/hOvercast
7:29 AM7 °C7 °C100 %1020.3 hPa9.7 kmWNW (290°)5.6 km/hOvercast
7:53 AM7.2 °C6.7 °C97 %1021.3 hPa6.4 kmWest (270°)7.4 km/hOvercast
8:11 AM7 °C7 °C100 %1020.7 hPa4 kmWNW (290°)7.4 km/hOvercast
8:37 AM8 °C7 °C93 %1020.7 hPa4.8 kmWNW (290°)11.1 km/h0 mmOvercast
8:53 AM7.8 °C6.7 °C93 %1021.3 hPa4.8 kmWNW (290°)13 km/h0 mmRainLight Rain
9:11 AM8 °C7 °C93 %1020.7 hPa6.4 kmWNW (300°)7.4 km/h0 mmOvercast
9:53 AM7.8 °C6.1 °C89 %1021.7 hPa6.4 kmWNW (300°)20.4 km/h31.5 km/h0 mmOvercast
10:16 AM8 °C6 °C87 %1021.7 hPa6.4 kmWNW (290°)11.1 km/hOvercast
10:53 AM7.2 °C5.6 °C90 %1022.4 hPa4.8 kmNW (310°)11.1 km/hOvercast
11:53 AM6.7 °C5 °C89 %1022.7 hPa6.4 kmNW (310°)20.4 km/hOvercast
12:02 PM6 °C4 °C87 %1022 hPa6.4 kmNNW (330°)20.4 km/h0 mmRainLight Rain
12:15 PM6 °C5 °C93 %1022 hPa4 kmNorth (350°)16.7 km/h0 mmOvercast
12:32 PM5 °C3 °C87 %1022.4 hPa8 kmNNW (340°)25.9 km/h42.6 km/h0 mmRainLight Rain
12:49 PM4 °C2 °C87 %1022.7 hPa16.1 kmNNW (340°)25.9 km/h38.9 km/h0 mmOvercast
12:53 PM3.9 °C2.2 °C89 %1023.4 hPa16.1 kmNNW (330°)24.1 km/h38.9 km/h0 mmOvercast
1:36 PM3 °C1 °C87 %1023 hPa16.1 kmNNW (330°)31.5 km/h44.4 km/hOvercast
1:53 PM3.3 °C1.1 °C86 %1024 hPa16.1 kmNNW (330°)24.1 km/h33.3 km/hOvercast
2:32 PM3 °C-1 °C75 %1023.7 hPa16.1 kmNNW (340°)27.8 km/h40.7 km/hOvercast
2:53 PM2.8 °C-0.6 °C79 %1024.4 hPa16.1 kmNNW (330°)18.5 km/h33.3 km/hOvercast
3:53 PM2.8 °C-1.7 °C73 %1025.1 hPa16.1 kmNNW (340°)24.1 km/h38.9 km/hOvercast
4:53 PM2.2 °C-2.8 °C70 %1026.8 hPa16.1 kmNNW (340°)25.9 km/h37 km/hMostly Cloudy
5:03 PM2 °C-3 °C70 %1026.1 hPa16.1 kmNNW (340°)18.5 km/h40.7 km/hMostly Cloudy
5:53 PM2.2 °C-3.3 °C67 %1027.4 hPa16.1 kmNNW (340°)22.2 km/h31.5 km/hOvercast
6:30 PM2 °C-3 °C70 %1027.1 hPa16.1 kmNNW (330°)13 km/h31.5 km/hOvercast
6:38 PM2 °C-3 °C70 %1027.1 hPa16.1 kmNW (320°)11.1 km/hOvercast
6:53 PM1.7 °C-3.9 °C67 %1028.1 hPa16.1 kmNNW (330°)14.8 km/hScattered Clouds
7:53 PM1.1 °C-4.4 °C67 %1028.4 hPa16.1 kmNNW (330°)22.2 km/h31.5 km/hScattered Clouds
8:53 PM0 °C-5 °C69 %1028.4 hPa16.1 kmNNW (330°)11.1 km/hClear
9:53 PM-1.1 °C-5 °C75 %1028.1 hPa16.1 kmNW (310°)7.4 km/hClear
10:53 PM-2.8 °C-5.6 °C81 %1028.4 hPa16.1 kmWest (280°)7.4 km/hClear
11:53 PM-3.3 °C-5.6 °C84 %1028.8 hPa16.1 kmWest (280°)9.3 km/hClear
Hourly data recorded from KARB, located 0 kilometers away from Ann Arbor, Michigan







STORIES FROM OUR PARTNERS